Weather History for Wright-Patt AFB, OH

Change the Weather History Date:

Friday, December 14, 2012

  Actual Average Record
Temperature  
Mean Temperature 38 °F -  
Max Temperature 52 °F 39 °F 59 °F (2001)
Min Temperature 23 °F 25 °F 7 °F (2010)
Degree Days  
Heating Degree Days 28    
Moisture  
Dew Point 23 °F    
Average Humidity 60    
Maximum Humidity 86    
Minimum Humidity 26    
Precipitation  
Precipitation 0.00 in - - ()
Sea Level Pressure  
Sea Level Pressure 30.26 in    
Wind  
Wind Speed 4 mph (South)    
Max Wind Speed 13 mph    
Max Gust Speed -    
Visibility 10 miles    
Events      
Averages and records for this station are not official NWS values.
T = Trace of Precipitation, MM = Missing Value Source: NWS Daily Summary

Daily Weather History Graph

Daily Weather History Graph

Search for Another Location

Airport:

Trip Planner

Search our weather history database for the weather conditions in past years. The results will help you decide how hot, cold, wet, or windy it might be!

Date:

Astronomy

Dec. 14, 2012 Rise Set
Actual Time 7:50 AM EST 5:12 PM EST
Civil Twilight 7:19 AM EST 5:42 PM EST
Nautical Twilight 6:45 AM EST 6:16 PM EST
Astronomical Twilight 6:12 AM EST 6:49 PM EST
Moon 8:54 AM EST (12/14) 7:03 PM EST (12/14)
Length of Visible Light 10h 23m
Length of Day
9h 22m
Waxing Crescent, 3% of the Moon is Illuminated
Dec 14
Waxing Crescent
Dec 20
First Quarter
Dec 28
Full
Jan 4
Last Quarter
Jan 11
New

Hourly Weather History & Observations

Time (EST) Temp. Windchill Dew Point Humidity Pressure Visibility Wind Dir Wind Speed Gust Speed Precip Events Conditions
12:55 AM 30.0 °F 26.5 °F 23.0 °F 75% 30.28 in 10.0 mi SSE 3.5 mph - N/A   Clear
1:55 AM 28.8 °F 22.6 °F 22.8 °F 78% 30.27 in 10.0 mi SE 5.8 mph - N/A   Clear
2:55 AM 30.0 °F - 23.4 °F 76% 30.30 in 10.0 mi Calm Calm - N/A   Clear
3:55 AM 27.5 °F - 22.5 °F 81% 30.31 in 10.0 mi Calm Calm - N/A   Clear
4:55 AM 27.0 °F - 22.3 °F 83% 30.31 in 10.0 mi Calm Calm - N/A   Clear
5:55 AM 25.2 °F - 21.4 °F 86% 30.30 in 10.0 mi Calm Calm - N/A   Clear
6:55 AM 26.6 °F 22.6 °F 22.3 °F 84% 30.30 in 10.0 mi SSE 3.5 mph - N/A   Clear
7:55 AM 23.5 °F - 19.9 °F 86% 30.31 in 10.0 mi Calm Calm - N/A   Clear
8:55 AM 30.4 °F 26.9 °F 25.0 °F 80% 30.31 in 10.0 mi SE 3.5 mph - N/A   Clear
9:55 AM 36.3 °F - 25.5 °F 65% 30.31 in 10.0 mi Calm Calm - N/A   Clear
10:55 AM 42.6 °F 35.9 °F 24.4 °F 49% 30.32 in 10.0 mi SW 12.7 mph - N/A   Clear
11:55 AM 46.2 °F 41.2 °F 23.4 °F 41% 30.30 in 10.0 mi SW 10.4 mph - N/A   Partly Cloudy
12:55 PM 48.9 °F - 22.1 °F 35% 30.27 in 10.0 mi SSW 10.4 mph - N/A   Partly Cloudy
1:55 PM 51.3 °F - 20.1 °F 29% 30.24 in 10.0 mi SSW 10.4 mph - N/A   Partly Cloudy
2:04 PM 51.8 °F - 19.4 °F 28% 30.20 in 10.0 mi SW 9.2 mph - N/A   Partly Cloudy
2:55 PM 52.5 °F - 18.3 °F 26% 30.22 in 10.0 mi SSW 10.4 mph - N/A   Partly Cloudy
3:55 PM 49.8 °F - 19.4 °F 30% 30.21 in 10.0 mi SSW 6.9 mph - N/A   Partly Cloudy
4:55 PM 48.0 °F - 19.0 °F 32% 30.20 in 10.0 mi SSE 5.8 mph - N/A   Mostly Cloudy
5:55 PM 45.1 °F - 21.6 °F 39% 30.21 in 10.0 mi Calm Calm - N/A   Mostly Cloudy
6:55 PM 39.4 °F - 22.8 °F 52% 30.23 in 10.0 mi Calm Calm - N/A   Mostly Cloudy
7:55 PM 37.8 °F - 24.1 °F 58% 30.23 in 10.0 mi Calm Calm - N/A   Overcast
8:55 PM 36.1 °F - 25.9 °F 66% 30.23 in 10.0 mi Calm Calm - N/A   Overcast
9:55 PM 35.4 °F - 27.0 °F 71% 30.22 in 10.0 mi Calm Calm - N/A   Mostly Cloudy
10:55 PM 34.7 °F - 27.1 °F 74% 30.19 in 10.0 mi Calm Calm - N/A   Mostly Cloudy
11:55 PM 34.7 °F - 26.6 °F 72% 30.19 in 10.0 mi Calm Calm - N/A   Mostly Cloudy